Погода в Олбани

США     42°41′04″N   73°47′56″W
темп.,
°C
ветер,
м/с
пор.,
м/с
влажн.,
%
обл.,
%
осадки,
мм/ч
давл.,
гПа
погр.,
м
16 октября, сб
сб1623:00+19ююв2697100 4.1 1009244
02:00+18ю4109750 7.1 1008362
05:00+18ю51197100 2.2 1007436
08:00+17ю51195100 4.6 1006472
11:00+21ю71581100 0.7 1003791
14:00+24ю7156799 0.7 10011588
17:00+20юз41083100 1.7 1001709
20:00+15сз41192100 9.8 1005888
17 октября, вс
вс1723:00+13зсз41088100 6.6 1006889
02:00+12зсз310878 6.6 1007782
05:00+10зсз388613 0.0 1007674
08:00+10з27835 0.0 1008377
11:00+13зсз477283 0.4 10081117
14:00+13зсз377281 1.1 10071135
17:00+10зсз41179100 1.1 1008951
20:00+10зсз3107348 1.2 10091011
18 октября, пн
пн1823:00+8зсз28779 0.0 1010636
02:00+7зсз38741 0.0 1010406
05:00+6зсз26714 0.0 1010259
08:00+6сз27695 0.0 1011275
11:00+11сз464768 0.0 10101240
14:00+10зсз466391 0.1 10101262
17:00+9сз595674 0.2 10121529
20:00+7сз396338 0.2 1013885
19 октября, вт
вт1923:00+6зсз4106710 0.0 1014701
02:00+5сз29705 0.0 1015580
05:00+4сз310695 0.0 1016778
08:00+5зсз311675 0.0 1016573
11:00+11зсз511572 0.0 10151072
14:00+15зсз613520 0.0 10121490
17:00+15зсз513584 0.0 10111417
20:00+14зсз3127210 0.0 1012965
20 октября, ср
ср2023:00+13з412740 0.0 1012859
02:00+13зсз3118220 0.1 1012715
05:00+14зсз4117734 0.0 10131028
08:00+14сз397694 0.0 1014934
11:00+16зсз3970100 0.0 10151197
14:00+17зсз496588 0.0 10151217
17:00+18з39631 0.0 10141047
20:00+14ююз11783 0.0 101513